Weather History for Blythe, CA

Change the Weather History Date:

Saturday, September 21, 2013

  Actual Average Record
Temperature  
Mean Temperature 86 °F -  
Max Temperature 102 °F 98 °F 108 °F (2003)
Min Temperature 73 °F 70 °F 61 °F (1988)
Cooling Degree Days 22    
Growing Degree Days 36 (Base 50)    
Moisture  
Dew Point 50 °F    
Average Humidity 33    
Maximum Humidity 59    
Minimum Humidity 8    
Precipitation  
Precipitation 0.00 in - - ()
Sea Level Pressure  
Sea Level Pressure 29.66 in    
Wind  
Wind Speed 7 mph (SSW)    
Max Wind Speed 17 mph    
Max Gust Speed 26 mph    
Visibility 10 miles    
Events      
Averages and records for this station are not official NWS values.
T = Trace of Precipitation, MM = Missing Value Source: NWS Daily Summary

Daily Weather History Graph

Daily Weather History Graph

Search for Another Location

Airport:

Trip Planner

Search our weather history database for the weather conditions in past years. The results will help you decide how hot, cold, wet, or windy it might be!

Date:

Astronomy

Sep. 21, 2013 Rise Set
Actual Time 6:26 AM PDT 6:36 PM PDT
Civil Twilight 6:01 AM PDT 7:01 PM PDT
Nautical Twilight 5:32 AM PDT 7:30 PM PDT
Astronomical Twilight 5:03 AM PDT 7:59 PM PDT
Moon 7:59 PM PDT (9/21) 8:40 AM PDT (9/21)
Length of Visible Light 12h 59m
Length of Day
12h 10m
Waning Gibbous, 94% of the Moon is Illuminated
Sep 21
Waning Gibbous
Sep 26
Last Quarter
Oct 4
New
Oct 11
First Quarter
Oct 18
Full

Hourly Weather History & Observations

Time (PDT) Temp. Heat Index Dew Point Humidity Pressure Visibility Wind Dir Wind Speed Gust Speed Precip Events Conditions
12:52 AM 79.0 °F - 52.0 °F 39% 29.70 in 10.0 mi Calm Calm - N/A   Clear
1:52 AM 79.0 °F - 54.0 °F 42% 29.71 in 10.0 mi SW 3.5 mph - N/A   Clear
2:52 AM 78.1 °F - 60.1 °F 54% 29.70 in 10.0 mi South 8.1 mph - N/A   Clear
3:52 AM 77.0 °F - 61.0 °F 58% 29.70 in 10.0 mi South 10.4 mph - N/A   Clear
4:52 AM 78.1 °F - 61.0 °F 56% 29.70 in 10.0 mi South 8.1 mph - N/A   Clear
5:52 AM 77.0 °F - 61.0 °F 58% 29.71 in 10.0 mi Variable 3.5 mph - N/A   Clear
6:52 AM 73.0 °F - 57.9 °F 59% 29.73 in 10.0 mi NNW 3.5 mph - N/A   Clear
7:52 AM 78.1 °F - 60.1 °F 54% 29.74 in 10.0 mi Calm Calm - N/A   Clear
8:52 AM 82.9 °F 83.7 °F 62.1 °F 49% 29.75 in 10.0 mi Calm Calm - N/A   Clear
9:52 AM 88.0 °F 86.9 °F 57.9 °F 36% 29.75 in 10.0 mi SSW 8.1 mph - N/A   Clear
10:52 AM 93.0 °F - 52.0 °F 25% 29.73 in 10.0 mi SSW 13.8 mph - N/A   Clear
11:52 AM 95.0 °F - 52.0 °F 23% 29.71 in 10.0 mi South 11.5 mph 20.7 mph N/A   Clear
12:52 PM 97.0 °F - 50.0 °F 20% 29.67 in 10.0 mi South 15.0 mph - N/A   Clear
1:52 PM 99.0 °F 97.3 °F 55.0 °F 23% 29.64 in 10.0 mi SSE 15.0 mph 21.9 mph N/A   Clear
2:52 PM 99.0 °F 96.9 °F 54.0 °F 22% 29.61 in 10.0 mi SSE 16.1 mph 20.7 mph N/A   Clear
3:52 PM 100.0 °F - 46.9 °F 16% 29.59 in 10.0 mi SW 11.5 mph 23.0 mph N/A   Clear
4:52 PM 100.0 °F - 39.9 °F 13% 29.57 in 10.0 mi SW 17.3 mph 26.5 mph N/A   Clear
5:52 PM 98.1 °F - 28.0 °F 8% 29.57 in 10.0 mi West 16.1 mph - N/A   Clear
6:52 PM 93.9 °F - 25.0 °F 8% 29.56 in 10.0 mi WSW 11.5 mph - N/A   Clear
7:52 PM 91.0 °F - 33.1 °F 13% 29.56 in 10.0 mi WSW 12.7 mph - N/A   Clear
8:52 PM 88.0 °F - 39.9 °F 18% 29.57 in 10.0 mi WSW 10.4 mph - N/A   Clear
9:52 PM 84.9 °F - 48.9 °F 29% 29.58 in 10.0 mi WSW 17.3 mph - N/A   Clear
10:52 PM 80.1 °F - 48.9 °F 34% 29.60 in 10.0 mi SE 9.2 mph - N/A   Clear
11:52 PM 78.1 °F - 51.1 °F 39% 29.60 in 10.0 mi Calm Calm - N/A   Clear